Weather WX

World > North America > United States > Oregon

Gearhart, Oregon Regional Weather

Lat: 46.02N, Lon: 123.92W
Wx Zone: ORZ001
Feedback

Gearhart, OR Regional Weather

Expires:201906161800;;169176
ASUS46 KPQR 161710
RWROR 

OREGON REGIONAL WEATHER ROUNDUP
NATIONAL WEATHER SERVICE PORTLAND OR
1000 AM PDT SUN JUN 16 2019

NOTE: "FAIR" INDICATES FEW OR NO CLOUDS BELOW 12,000 FEET WITH
NO SIGNIFICANT WEATHER AND/OR OBSTRUCTIONS TO VISIBILITY.


ORZ001>013-161800-
NORTHWEST OREGON

  
CITY           SKY/WX    TMP DP  RH WIND       PRES   REMARKS
ASTORIA        CLOUDY    58  54  86 NW10      30.11R                  
TILLAMOOK      MOSUNNY   61  52  72 NW10      30.12R                  
PORTLAND       PTSUNNY   60  50  69 VRB3      30.07F                  
VANCOUVER WA   MOSUNNY   60  50  69 VRB5      30.07S                  
SCAPPOOSE      SUNNY     64  51  62 CALM      30.06S                  
HILLSBORO      SUNNY     64  50  60 CALM      30.06F                  
AURORA         SUNNY     64  50  60 VRB5      30.07F                  
MCMINNVILLE    SUNNY     64  50  60 CALM      30.06F                  
SALEM          SUNNY     65  51  60 N7        30.06S                  
CORVALLIS      SUNNY     67  52  58 VRB5      30.07S                  
EUGENE         MOSUNNY   69  54  58 N10       30.06S                  
$$


SKY/WX - Weather  TMP - Temperature  DP - Dew Point  RH - Relative Humidity
WIND - Wind Direction/Speed PRES - Barometric Pressure VSB - Visibility
WCI - Wind Chill Index E13G22 Wind - East Wind 13 mph/Gusts of 22 mph